FW9558 Weather Reports


Display with metric or nautical units.
time (UTC)temp
F
wind
direction
speed
MPH
gust
MPH
rain 1hr
in
rain 24hr
in
rain mn
in
humidity
%
barometer
mb
20260902110048 72 253 0.0 7.0 0.00 0.00 0.00 66 1024.2
20260902104552 72 272 2.0 8.0 0.00 0.00 0.00 64 1024.2
20260902103048 72 0 1.0 4.0 0.00 0.00 0.00 67 1024.3
20260902101543 71 0 2.0 7.0 0.00 0.00 0.00 69 1024.3
20260902100107 71 274 2.0 8.0 0.00 0.00 0.00 69 1024.2
20260902094544 70 0 1.0 7.0 0.00 0.00 0.00 74 1024.2
20260902093048 69 284 1.0 6.0 0.00 0.00 0.00 75 1024.1
20260902091542 69 0 0.0 6.0 0.00 0.00 0.00 77 1024.0
20260902090043 67 287 0.0 5.0 0.00 0.00 0.00 79 1023.8
20260902084549 66 0 1.0 7.0 0.00 0.00 0.00 81 1023.9
20260902083046 64 0 1.0 7.0 0.00 0.00 0.00 84 1023.7
20260902081549 62 286 0.0 4.0 0.00 0.00 0.00 88 1023.7
20260902080042 61 0 0.0 3.0 0.00 0.00 0.00 92 1023.6
20260902074547 60 236 0.0 4.0 0.00 0.00 0.00 93 1023.3
20260902073050 59 228 0.0 3.0 0.00 0.00 0.00 94 1023.5
20260902071620 58 254 0.0 3.0 0.00 0.00 0.00 94 1023.2
20260902071542 58 254 0.0 3.0 0.00 0.00 0.00 94 1023.2
20260902070046 58 0 0.0 0.0 0.00 0.00 0.00 94 1023.0
20260902064557 58 0 0.0 0.0 0.00 0.00 0.00 94 1023.0
20260902063050 57 0 0.0 0.0 0.00 0.00 0.00 94 1023.0
20260902061556 57 0 0.0 0.0 0.00 0.00 0.00 94 1022.7
20260902060042 57 0 0.0 0.0 0.00 0.00 0.00 93 1022.5
20260902054547 57 0 0.0 0.0 0.00 0.00 0.00 93 1022.7
20260902053048 57 0 0.0 0.0 0.00 0.00 0.00 93 1022.6
20260902051544 57 0 0.0 0.0 0.00 0.00 0.00 93 1022.5
20260902050042 57 0 0.0 0.0 0.00 0.00 0.00 93 1022.4
20260902044544 57 0 0.0 0.0 0.00 0.00 0.00 92 1022.3
20260902043052 58 0 0.0 1.0 0.00 0.00 0.00 92 1022.2
20260902041544 58 0 0.0 1.0 0.00 0.00 0.00 92 1022.3
20260902040044 58 0 0.0 0.0 0.00 0.00 0.00 92 1022.1
20260902034543 58 0 0.0 0.0 0.00 0.00 0.00 92 1022.0
20260902033046 58 0 0.0 0.0 0.00 0.00 0.00 92 1021.9
20260902031546 58 0 0.0 0.0 0.00 0.00 0.00 92 1021.9
20260902030043 58 0 0.0 0.0 0.00 0.00 0.00 91 1021.8
20260902024543 59 0 0.0 0.0 0.00 0.00 0.00 91 1021.9
20260902023051 59 0 0.0 0.0 0.00 0.00 0.00 91 1022.0
20260902021544 59 0 0.0 0.0 0.00 0.00 0.00 90 1021.8
20260902020045 59 0 0.0 0.0 0.00 0.00 0.00 90 1021.9
20260902014549 60 0 0.0 0.0 0.00 0.00 0.00 90 1022.3
20260902013044 60 0 0.0 0.0 0.00 0.00 0.00 89 1022.0
20260902011549 60 0 0.0 0.0 0.00 0.00 0.00 89 1022.3
20260902010038 60 0 0.0 0.0 0.00 0.00 0.00 89 1022.5
20260902004549 60 0 0.0 0.0 0.00 0.00 0.00 89 1022.4
20260902003048 60 0 0.0 0.0 0.00 0.00 0.00 88 1022.6
20260902001545 60 0 0.0 0.0 0.00 0.00 0.00 88 1022.3
20260902000048 60 0 0.0 2.0 0.00 0.00 0.00 88 1022.6
20260901234541 61 0 0.0 0.0 0.00 0.00 0.00 87 1022.7
20260901233046 61 0 0.0 0.0 0.00 0.00 0.00 86 1022.5
20260901231545 61 0 0.0 0.0 0.00 0.00 0.00 85 1022.6
20260901230042 62 0 0.0 2.0 0.00 0.00 0.00 86 1022.7
20260901224551 62 0 0.0 1.0 0.00 0.00 0.00 85 1022.7
20260901223045 62 0 0.0 0.0 0.00 0.00 0.00 85 1022.8
20260901221555 62 0 0.0 0.0 0.00 0.00 0.00 84 1022.6
20260901220052 63 0 0.0 1.0 0.00 0.00 0.00 83 1022.3
20260901214557 63 0 0.0 2.0 0.00 0.00 0.00 83 1022.6
20260901213047 63 0 0.0 1.0 0.00 0.00 0.00 82 1022.3
20260901211542 64 0 0.0 1.0 0.00 0.00 0.00 80 1022.5
20260901210049 64 0 0.0 4.0 0.00 0.00 0.00 79 1022.6
20260901204545 65 0 0.0 9.0 0.00 0.00 0.00 77 1022.5
20260901203046 65 0 1.0 7.0 0.00 0.00 0.00 76 1022.4
20260901201540 66 238 1.0 6.0 0.00 0.00 0.00 75 1022.3
20260901200040 66 273 1.0 6.0 0.00 0.00 0.00 74 1022.0
20260901194552 67 281 2.0 8.0 0.00 0.00 0.00 73 1021.8
20260901193044 67 269 2.0 9.0 0.00 0.00 0.00 72 1021.8
20260901191550 68 261 1.0 8.0 0.00 0.00 0.00 71 1021.5
20260901190053 69 246 2.0 8.0 0.00 0.00 0.00 68 1021.4
20260901184550 71 276 0.0 2.0 0.00 0.00 0.00 62 1021.4
20260901183101 72 0 0.0 0.0 0.00 0.00 0.00 61 1021.5
20260901181551 74 0 0.0 3.0 0.00 0.00 0.00 57 1021.4
20260901180051 75 0 0.0 4.0 0.00 0.00 0.00 54 1021.3
20260901174545 76 242 0.0 2.0 0.00 0.00 0.00 53 1021.4
20260901173047 78 0 0.0 2.0 0.00 0.00 0.00 51 1021.5
20260901171547 77 0 0.0 2.0 0.00 0.00 0.00 50 1021.4
20260901170044 78 0 0.0 4.0 0.00 0.00 0.00 51 1021.6
20260901164548 77 0 0.0 3.0 0.00 0.00 0.00 51 1021.5
20260901163054 77 0 1.0 4.0 0.00 0.00 0.00 51 1021.5
20260901161559 77 0 3.0 8.0 0.00 0.00 0.00 52 1021.5
20260901160044 76 0 0.0 3.0 0.00 0.00 0.00 53 1021.4
20260901154608 76 0 0.0 4.0 0.00 0.00 0.00 55 1021.4
20260901153050 77 0 0.0 3.0 0.00 0.00 0.00 52 1021.5
20260901151544 77 355 1.0 4.0 0.00 0.00 0.00 51 1021.4
20260901144548 76 350 0.0 3.0 0.00 0.00 0.00 52 1021.5
20260901143049 76 93 1.0 5.0 0.00 0.00 0.00 52 1021.6
20260901141600 76 0 0.0 2.0 0.00 0.00 0.00 55 1021.6
20260901140053 76 0 0.0 3.0 0.00 0.00 0.00 54 1021.8
20260901134545 76 0 0.0 3.0 0.00 0.00 0.00 55 1021.8
20260901133043 75 0 0.0 3.0 0.00 0.00 0.00 55 1022.1
20260901131547 75 0 0.0 2.0 0.00 0.00 0.00 58 1022.2
20260901130046 74 0 0.0 4.0 0.00 0.00 0.00 58 1022.5
20260901124547 73 0 0.0 0.0 0.00 0.00 0.00 61 1022.6
20260901123044 73 0 1.0 4.0 0.00 0.00 0.00 57 1022.9
20260901121548 74 0 0.0 4.0 0.00 0.00 0.00 58 1022.9
20260901120100 73 0 0.0 3.0 0.00 0.00 0.00 63 1023.0
20260901114545 72 120 0.0 4.0 0.00 0.04 0.00 62 1023.2
20260901113054 72 162 2.0 5.0 0.00 0.04 0.00 64 1023.2
20260901111555 72 0 0.0 2.0 0.00 0.04 0.00 63 1023.4